#timestamp,LO_Frequency,Hit,StdDev 
1568365215.5,286047000.7,N
1568365235.4,286047001.2,N
1568365255.2,286046998.6,N
1568365275.0,286046999.5,N
1568365275.9,286046999.5,N
1568365295.8,286046998.6,N
1568365315.6,286046998.3,N
1568365335.5,286046998.1,N
1568365355.3,286047002.5,N
1568365375.1,286047002.8,N
1568365395.9,286047002.4,N
1568365415.7,286047000.4,N
1568365435.6,286047000.4,N
1568365455.4,286047002.8,N
1568365475.2,286046999.8,N
1568365495.1,286047001.0,N
1568365496.0,286047001.0,N
1568365515.8,286047000.5,N
1568365535.7,286047001.2,N
1568365555.5,286046998.9,N
1568365575.3,286046997.2,N
1568365595.2,286046999.1,N
1568365615.0,286046998.7,N
1568365615.9,286046998.7,N
1568365635.7,286046996.8,N
1568365655.6,286046997.4,N
1568365675.4,286046995.3,N
1568365695.3,286046996.8,N
1568365715.1,286046998.4,N
1568365735.8,286046998.9,N
1568365755.7,286047001.2,N
1568365775.5,286046999.7,N
1568365795.4,286047002.4,N
1568365815.2,286046998.1,N
1568365835.0,286046999.5,N
1568365835.9,286046999.5,N
1568365855.8,286046999.6,N
1568365875.6,286046998.4,N
1568365895.4,286046998.3,N
1568365915.3,286046998.7,N
1568365935.1,286046998.3,N
1568365955.9,286046998.2,N
1568365975.7,286047000.8,N
1568365995.5,286047000.4,N
1568366015.4,286046999.9,N
1568366035.2,286047002.7,N
1568366055.0,286047002.8,N
1568366056.0,286047002.8,N
1568366075.8,286046998.1,N
1568366095.6,286046998.1,N
1568366115.5,286046999.9,N
1568366135.3,286047002.7,N
1568366155.1,286047002.8,N
1568366175.9,286047002.4,N
1568366195.7,286046998.3,N
1568366215.6,286047001.1,N
1568366235.4,286047001.0,N
1568366255.2,286046999.8,N
1568366275.1,286047001.1,N
1568366276.0,286047001.1,N
1568366295.8,286047002.7,N
1568366315.7,286047001.3,N
1568366335.5,286047002.0,N
1568366355.3,286047001.7,N
1568366375.2,286047003.0,N
1568366395.0,286047005.8,Y
1568366395.9,286047005.8,P
1568366415.8,286047003.0,N
1568366435.6,286047005.6,N
1568366455.4,286047005.3,N
1568366475.3,286047005.7,N
1568366495.1,286047004.8,N
1568366515.9,286047004.8,N
1568366535.7,286047005.9,Y
1568366555.5,286046998.1,P
1568366575.4,286047000.5,N
1568366595.2,286047001.2,N
1568366615.0,286046998.8,N
1568366616.0,286046998.8,N
1568366635.8,286047000.1,N
1568366655.6,286047002.8,N
1568366675.5,286047000.2,N
1568366695.3,286047000.8,N
1568366715.1,286047000.5,N
1568366735.9,286047000.5,N
1568366755.7,286047000.0,N
1568366775.6,286047002.7,N
1568366795.4,286047000.4,N
1568366815.2,286046998.1,N
1568366835.1,286047000.0,N
1568366836.0,286047000.0,N
1568366855.8,286047000.5,N
1568366875.7,286047001.2,N
1568366895.5,286047000.9,N
1568366915.3,286046999.0,N
1568366935.2,286046996.5,N
1568366955.0,286046997.3,N
1568366955.9,286046997.3,N
1568366975.7,286046997.4,N
1568366995.6,286046996.9,N
1568367015.4,286046999.3,N
1568367035.3,286046999.0,N
1568367055.1,286046996.8,N
1568367056.0,286046996.8,N
1568367075.8,286046996.8,N
1568367095.7,286046999.6,N
1568367115.5,286046999.0,N
1568367135.4,286046999.1,N
1568367155.2,286046997.4,N
1568367175.0,286046997.9,N
1568367175.9,286046997.9,N
1568367195.8,286046997.6,N
1568367215.1,286046995.3,N
1568367216.0,286046995.3,N
1568367235.8,286046995.4,N
1568367255.6,286046994.9,N
1568367275.5,286046995.3,N
1568367295.3,286046997.4,N
1568367315.2,286046998.0,N
1568367335.9,286046995.2,N
1568367355.7,286046996.4,N
1568367375.6,286046996.2,N
1568367395.4,286046996.3,N
1568367415.2,286046995.9,N
1568367435.1,286046995.9,Y
1568367436.0,286046995.9,P
1568367455.8,286046999.5,N
1568367475.7,286046996.6,N
1568367495.5,286046999.6,N
1568367515.3,286046997.0,N
1568367535.2,286046997.1,N
1568367555.0,286046997.0,N
1568367555.9,286046997.0,N
1568367575.8,286046997.0,N
1568367595.6,286046997.8,N
1568367615.4,286046997.8,N
1568367635.3,286046996.5,Y
1568367655.1,286047000.0,P
1568367675.9,286047000.2,N
1568367695.7,286047000.5,N
1568367715.5,286046998.7,N
1568367735.4,286046998.7,N
1568367755.2,286046998.3,N
1568367775.1,286046998.5,N
1568367776.0,286046998.5,N
1568367795.8,286047000.0,N
1568367815.6,286047000.4,N
1568367835.5,286046998.4,N
1568367855.3,286046999.0,N
1568367875.1,286046999.0,N
1568367895.9,286047001.1,N
1568367915.7,286047000.8,N
1568367935.6,286047000.8,N
1568367955.4,286047001.2,N
1568367975.2,286047001.2,N
1568367995.1,286047002.7,N
1568367996.0,286047002.7,N
1568368015.8,286047000.3,N
1568368035.7,286047000.2,N
1568368055.5,286047000.8,N
1568368075.3,286047000.0,N
1568368095.2,286047000.1,N
1568368115.0,286047002.3,N
1568368115.9,286047002.3,N
1568368135.7,286047000.1,N
1568368155.6,286047000.4,N
1568368175.4,286047002.8,N
1568368195.3,286046999.9,N
1568368215.1,286047000.6,N
1568368216.0,286047000.6,N
1568368235.8,286046998.4,N
1568368255.7,286047001.1,N
1568368275.5,286047001.0,N
1568368295.4,286047000.2,N
1568368315.2,286047002.3,N
1568368335.0,286047002.8,N
1568368335.9,286047002.8,N
1568368355.8,286046999.7,N
1568368375.6,286047000.9,N
1568368395.4,286047001.2,N
1568368415.3,286046998.6,N
1568368435.1,286047000.8,N
1568368455.9,286047002.8,N
1568368475.7,286047002.3,N
1568368495.5,286047002.4,N
1568368515.4,286047002.6,N
1568368535.2,286047000.0,N
1568368555.0,286047000.5,N
1568368556.0,286047000.5,N
1568368575.8,286046999.7,N
1568368595.6,286047000.0,N
1568368615.5,286047001.0,N
1568368635.3,286047000.4,N
1568368655.1,286047000.1,N
1568368675.9,286047002.2,N
1568368695.7,286047000.2,N
1568368715.6,286047000.5,N
1568368735.4,286047000.4,N
1568368755.2,286047000.5,N
1568368775.1,286047000.3,N
1568368776.0,286047000.3,N
1568368795.8,286047001.1,N
